Wind_Speed
6 8 8 7 6 6 7 8 10 8 2 3 6 7 6 6 5 7 8 5 6 8 7 6 6 6 4 5 5 4 5 6 6 7 8 8 8 8 8 8 8 8 8 8 10 15 19 21 22 23 22 18 17 21 27 30 32 31 31 32 30 27 26 26 25 24 24 25 26 25 24 23 21 19 16 14 13 12 12 11 10 10 9 9 9 10 11
4 6 7 8 7 6 8 9 7 4 5 7 6 6 6 7 7 9 8 5 7 6 5 5 4 3 3 3 4 5 7 7 7 8 8 7 8 8 8 8 7 7 7 7 9 14 17 21 23 24 25 25 20 17 18 21 26 29 30 32 32 29 27 27 25 23 23 23 24 24 24 22 20 18 15 13 12 12 12 11 10 10 9 9 11 12 11
4 4 6 7 8 7 9 8 2 2 4 6 5 6 5 4 5 6 3 4 6 5 4 3 1 3 5 6 6 7 6 6 6 7 6 6 7 6 7 7 7 7 8 8 9 12 15 19 23 23 25 27 23 19 20 21 25 30 31 32 34 32 31 32 31 27 24 24 24 24 24 22 20 17 14 12 12 12 11 11 10 9 9 10 11 11 10
4 4 6 7 4 5 9 6 1 2 8 6 4 5 3 2 4 2 1 4 5 4 5 3 1 4 6 6 6 5 5 5 5 5 5 5 6 6 7 7 7 7 8 8 9 12 15 18 21 23 24 26 25 20 21 24 24 29 32 32 34 34 34 35 37 33 29 27 27 26 24 22 19 16 14 13 12 12 12 11 9 9 9 9 8 7 7
5 4 5 3 3 4 9 7 5 6 7 4 2 2 1 2 3 3 3 5 5 3 3 4 4 6 6 4 4 4 5 4 4 4 4 5 5 6 6 7 7 7 7 8 10 14 16 16 18 23 25 25 27 26 20 20 23 29 33 33 33 33 32 33 35 34 32 31 30 28 25 22 18 15 14 12 12 12 11 9 8 8 7 5 4 6 10
5 5 2 4 2 5 8 6 6 7 5 4 2 1 2 3 1 3 4 3 3 3 2 3 4 4 2 2 5 5 3 1 2 3 4 5 5 6 6 7 6 6 8 12 15 16 17 16 17 21 25 27 29 27 18 12 14 19 26 32 33 32 31 33 34 35 35 36 33 29 25 21 17 15 13 12 11 11 9 7 7 6 3 3 6 9 12
5 3 2 1 6 7 5 3 3 5 7 6 6 4 3 3 1 4 4 2 1 2 2 2 4 4 3 5 7 5 3 5 2 2 5 5 5 6 7 7 7 8 11 15 18 20 21 22 22 21 23 28 31 26 15 11 11 8 13 21 30 32 32 33 35 37 39 39 35 30 26 21 17 14 12 12 11 10 8 7 6 4 4 6 8 10 13
3 1 3 5 7 4 3 4 5 3 3 4 2 2 2 1 3 6 5 4 4 4 4 4 4 5 5 5 5 5 4 5 2 3 5 6 6 7 7 8 8 11 14 15 17 21 25 28 29 27 25 27 30 27 15 14 17 13 9 13 20 26 28 29 31 36 39 38 34 30 25 20 17 15 13 12 11 10 8 6 5 5 6 6 8 11 14
4 4 4 3 5 6 5 4 4 4 3 4 5 3 3 3 2 5 6 4 5 5 5 5 5 6 4 2 4 5 4 3 3 4 6 7 7 9 11 12 14 15 17 17 18 21 25 28 31 32 30 28 30 27 16 16 20 19 19 18 20 22 25 26 27 31 34 34 31 27 23 19 17 15 13 12 11 9 7 6 6 7 6 7 10 13 13
3 4 4 3 4 6 5 4 4 6 2 4 6 4 2 5 4 3 4 2 4 4 4 4 4 5 6 6 5 5 5 5 5 6 8 9 11 12 14 16 17 17 17 19 20 22 25 29 31 32 31 28 27 27 19 19 22 22 24 23 23 26 30 32 34 33 32 30 28 24 20 18 15 13 12 10 10 8 6 7 8 7 8 10 11 11 11
2 3 4 4 4 5 4 5 7 8 5 1 5 3 3 5 4 3 2 1 3 3 3 3 4 5 6 8 6 4 5 6 6 7 9 11 14 16 16 17 18 20 20 21 24 24 23 28 31 30 30 28 25 25 20 20 24 24 25 24 23 26 30 32 35 34 31 29 26 23 19 16 14 13 11 9 8 7 7 9 10 10 12 12 9 8 9
1 2 3 3 3 3 3 4 6 8 6 4 6 1 5 5 4 4 3 3 4 4 3 1 2 1 4 7 8 6 6 7 8 9 10 12 14 16 18 19 20 22 23 22 24 25 25 28 30 28 28 27 25 24 20 22 27 27 29 31 30 29 29 29 31 31 29 26 23 21 19 16 13 12 9 7 7 8 10 12 13 13 14 12 7 6 9
1 1 2 3 2 2 3 4 6 6 5 6 4 3 6 4 5 5 4 4 5 4 4 3 2 4 7 8 9 9 8 9 11 12 13 16 17 18 20 22 22 23 24 23 24 26 28 29 29 28 27 25 24 24 20 23 30 32 36 36 33 32 32 31 31 30 27 24 21 18 18 16 13 10 9 8 9 12 13 14 15 15 14 10 6 6 12
1 2 2 2 2 2 3 5 5 3 3 2 2 4 4 4 5 5 4 5 5 5 5 5 5 6 7 8 10 10 9 9 11 12 14 15 18 21 23 24 24 23 24 24 24 26 28 28 29 28 26 24 23 22 20 23 29 36 40 40 37 35 34 33 32 30 27 24 21 18 16 14 12 11 11 10 11 13 14 15 16 14 11 8 7 9 14
1 0 1 1 1 2 3 2 4 3 1 2 4 4 4 4 5 5 5 5 4 4 4 5 6 7 8 9 10 11 11 10 10 11 12 13 16 20 22 24 25 24 23 23 25 27 28 28 28 26 22 20 18 18 18 19 25 33 38 39 38 36 35 34 33 29 25 22 20 17 15 14 13 12 11 10 10 13 15 15 15 13 9 9 10 12 16
1 1 2 2 2 2 3 2 2 2 3 3 4 4 4 4 3 3 3 4 5 5 5 7 7 7 8 9 9 10 11 10 8 9 11 13 16 20 23 26 26 24 23 23 24 26 27 27 26 22 18 15 14 17 19 20 26 34 37 37 37 35 34 34 31 26 23 21 19 18 16 14 12 10 8 9 11 13 15 15 13 12 11 11 13 14 16
2 4 5 4 4 4 4 3 4 4 4 3 1 2 3 3 3 3 3 4 6 6 6 7 7 7 8 9 9 10 10 10 9 10 12 14 17 21 24 26 25 24 23 23 23 24 24 24 20 15 11 10 13 20 23 26 31 35 37 38 38 36 33 30 27 25 23 20 19 18 15 13 10 8 7 9 10 12 14 14 13 13 13 14 15 15 16
4 4 4 3 4 5 5 4 4 4 3 3 1 1 2 4 4 4 4 5 7 6 6 6 7 7 8 9 9 9 9 10 10 10 12 16 19 21 22 23 25 24 22 22 20 18 18 17 10 5 5 8 17 24 26 29 33 36 37 37 36 35 32 28 26 25 23 20 18 17 15 11 8 7 7 7 7 9 12 14 14 15 15 16 16 16 16
3 4 4 5 6 8 7 4 3 3 3 4 3 3 4 5 5 6 6 6 7 7 6 6 8 9 9 8 10 9 8 10 10 9 11 15 18 20 21 23 25 23 20 17 14 12 14 14 6 5 6 8 17 25 26 28 34 37 38 37 35 34 32 30 26 24 22 20 17 14 13 10 8 7 5 3 5 8 12 14 15 16 17 18 18 16 16
3 5 7 8 9 8 6 3 3 3 3 4 4 4 5 5 6 6 7 6 6 6 7 8 9 10 9 9 10 9 8 9 9 9 11 15 18 20 22 24 25 21 17 13 11 12 15 15 9 8 8 7 15 22 24 29 34 35 35 35 34 32 31 28 23 19 19 19 15 12 11 10 7 5 3 3 5 7 9 11 13 16 18 19 19 16 15
5 7 8 8 8 7 5 4 5 5 4 5 6 5 5 5 6 7 7 7 7 7 8 8 8 9 10 10 10 10 9 8 8 9 13 18 19 20 22 25 23 18 14 12 12 15 18 17 14 13 10 8 16 21 25 31 34 32 33 34 32 29 26 23 20 18 17 15 12 11 13 11 8 5 2 3 4 5 6 9 12 15 16 18 18 15 13
6 6 5 4 5 6 6 5 5 5 5 6 6 6 6 6 7 7 8 9 8 8 9 8 7 9 10 9 8 9 8 8 10 13 16 18 19 21 23 23 20 16 14 14 16 19 21 19 15 13 11 13 19 23 28 34 35 34 35 33 30 27 23 20 19 18 16 13 11 13 14 11 7 4 2 3 3 3 6 9 12 14 16 18 17 14 14
6 8 7 4 3 6 7 6 6 6 6 6 7 8 7 7 8 8 8 8 9 8 8 9 8 7 7 8 8 8 9 11 14 17 19 19 19 20 21 19 16 15 14 15 18 19 16 10 9 16 21 22 22 23 28 34 35 35 34 32 29 27 25 21 19 17 16 15 15 14 12 9 6 3 2 4 3 3 7 11 13 15 17 19 18 15 15
7 8 8 5 4 7 8 8 8 7 6 7 9 9 7 8 8 7 8 8 8 7 8 10 10 8 7 9 9 8 9 14 17 19 21 22 21 20 18 16 16 16 15 15 17 15 8 9 16 23 25 23 22 25 30 34 34 33 33 32 28 25 23 21 19 17 18 18 16 13 10 8 7 6 5 4 2 4 7 10 13 15 17 18 19 19 19
7 7 6 6 6 8 8 8 8 7 7 8 8 7 7 8 8 9 9 7 6 8 8 8 9 10 10 10 11 11 12 15 19 21 22 22 21 17 13 14 17 17 15 12 11 9 11 17 22 24 24 23 23 25 27 31 33 33 33 30 25 22 23 23 21 19 19 17 13 11 11 10 9 8 6 3 2 5 7 10 12 14 14 15 16 19 20
8 8 6 6 7 7 6 7 7 6 7 7 6 7 9 11 11 12 11 8 9 12 9 5 6 12 14 13 13 14 15 16 20 21 18 15 14 12 13 19 23 17 10 11 13 15 17 22 26 26 26 26 24 22 25 29 31 31 29 26 24 24 24 22 20 18 18 15 12 12 12 10 9 7 4 0 2 5 8 11 13 14 13 13 13 14 16
7 7 6 7 9 7 6 7 8 7 7 8 7 8 12 14 14 14 12 12 14 14 10 8 8 10 13 15 15 15 16 15 15 14 11 10 14 16 15 17 15 7 9 13 17 21 23 24 26 27 28 29 28 26 28 30 29 28 28 27 26 24 21 19 18 18 16 14 12 12 12 10 8 5 2 2 3 6 9 12 13 15 14 13 14 14 15
6 6 5 7 9 9 8 9 9 7 8 9 9 10 12 13 11 8 8 9 10 8 9 11 9 5 8 13 12 11 11 10 9 10 12 13 15 11 1 8 7 8 12 14 18 23 24 23 23 22 23 26 28 28 30 29 28 27 28 26 23 21 19 18 18 16 14 13 12 12 12 9 6 4 2 2 4 7 10 12 13 14 14 13 14 15 16
6 5 5 7 8 9 9 9 8 7 8 9 10 9 9 9 7 5 6 8 6 4 7 8 5 4 7 9 9 9 9 7 8 12 16 15 10 7 17 22 20 18 21 22 22 23 23 21 19 18 19 25 30 30 30 30 27 26 26 25 24 21 19 17 15 13 12 12 12 12 10 8 5 3 0 3 6 8 11 12 13 13 13 13 14 16 18
7 6 6 7 7 7 8 8 7 6 6 7 7 7 6 6 5 6 7 7 4 4 4 3 2 3 4 6 11 13 11 10 13 16 17 15 15 19 24 27 26 25 26 25 23 25 26 22 19 18 19 23 27 28 28 26 23 23 25 25 22 19 17 14 12 10 9 11 13 14 10 6 5 4 2 5 7 10 12 12 11 11 11 13 15 16 17
9 8 6 5 5 5 5 5 5 5 5 5 6 6 6 5 6 8 7 3 0 1 1 1 1 2 7 10 14 17 17 17 18 18 18 20 25 29 32 34 30 23 22 25 26 28 27 24 20 20 21 22 23 25 25 24 23 24 23 21 17 16 14 12 10 8 7 10 13 13 9 6 6 6 5 7 10 13 14 11 9 9 11 13 14 14 15
7 6 3 3 4 4 5 5 5 6 6 6 6 7 6 6 7 8 4 2 3 2 1 3 6 9 14 16 16 18 19 19 20 21 23 27 30 29 30 34 34 30 30 31 30 27 25 23 21 21 26 27 26 25 25 24 22 21 18 16 15 15 13 11 9 8 7 8 9 10 7 4 3 3 5 8 10 12 12 9 9 9 11 12 13 13 14
5 4 5 6 6 6 7 6 6 7 8 7 6 7 6 6 6 5 1 4 4 4 4 10 13 16 19 19 18 18 19 20 21 23 25 26 27 26 28 33 36 36 35 33 30 28 26 24 22 23 26 27 25 23 22 21 20 19 16 14 14 13 11 10 8 7 7 8 7 5 1 2 4 6 7 7 7 7 7 7 9 9 11 12 12 12 13
6 4 5 5 5 5 6 7 6 7 7 6 5 5 4 3 1 3 7 7 5 8 13 17 18 20 21 20 19 21 21 17 14 16 21 24 25 25 28 33 36 37 37 35 33 29 26 23 24 25 24 23 22 21 21 20 20 19 16 15 13 11 10 9 8 6 6 6 5 5 6 8 10 10 9 7 5 6 6 8 9 10 11 12 11 12 13
6 5 5 5 4 5 5 6 6 6 5 6 6 5 6 8 7 9 13 12 11 15 20 22 22 22 22 21 21 21 20 16 14 17 22 25 25 27 30 33 34 35 36 35 32 28 25 24 24 23 22 22 21 19 17 17 17 16 15 14 13 11 9 8 7 7 8 9 10 13 15 16 16 14 11 8 7 7 7 8 8 9 10 11 11 11 13
8 7 5 5 7 8 7 7 6 6 6 7 5 5 8 12 11 11 15 17 18 20 23 24 24 23 22 21 20 20 19 19 20 22 23 24 26 32 35 34 31 30 30 30 30 28 27 28 27 25 26 27 26 24 21 19 17 16 15 15 15 14 14 14 14 14 15 16 17 18 18 18 18 16 13 11 11 11 10 9 7 8 9 9 9 11 13
11 10 8 7 9 12 11 10 9 10 11 10 8 8 10 13 14 17 20 22 22 23 24 24 23 22 21 21 22 22 22 22 23 25 26 27 31 36 35 31 29 27 24 23 25 27 30 31 31 31 31 31 31 30 28 24 22 22 21 20 21 22 21 21 20 20 20 19 19 19 19 19 18 17 16 16 16 16 15 13 11 11 10 8 8 9 12
13 14 14 13 13 14 14 14 15 16 14 13 13 14 16 19 22 23 23 22 22 24 25 24 24 23 23 23 23 23 23 23 25 27 28 30 33 34 30 26 25 23 19 18 22 28 32 33 33 34 34 33 33 32 30 27 26 25 24 24 24 24 23 23 22 21 20 20 20 20 20 20 19 18 17 17 18 19 18 17 16 15 14 12 10 10 11
11 13 16 17 18 17 16 17 19 19 17 15 15 17 21 25 27 27 26 25 26 26 25 24 23 23 22 22 21 20 20 21 23 24 25 27 30 29 26 24 24 21 19 21 26 31 32 32 33 34 33 32 32 31 29 27 26 25 24 24 24 23 22 22 21 20 20 20 20 21 21 20 19 18 17 17 17 18 18 17 17 17 16 15 14 14 14
8 10 14 16 16 15 15 16 18 19 20 20 19 19 22 25 27 27 26 25 26 27 26 24 23 21 20 19 18 18 19 21 22 21 23 25 27 25 23 24 26 25 24 26 30 30 30 31 32 31 30 29 29 27 26 25 25 25 25 24 23 23 22 21 21 20 21 20 21 21 21 20 19 18 17 17 17 17 17 17 17 16 16 16 16 16 16
8 10 13 14 14 14 14 15 16 19 22 23 22 23 25 26 27 25 23 23 25 27 26 24 22 20 19 19 20 20 22 24 26 26 27 26 24 20 17 19 23 25 26 28 29 29 28 28 28 27 26 26 25 23 22 22 23 24 25 25 24 24 24 23 23 22 22 21 22 21 21 20 19 19 18 17 17 17 16 16 16 15 15 15 15 16 16
8 9 11 12 12 13 14 15 16 18 20 21 22 24 26 27 26 24 23 24 26 25 24 23 22 20 19 20 22 22 23 25 27 29 29 26 23 19 16 17 22 25 26 27 28 29 28 27 25 23 22 21 21 21 21 21 22 23 24 24 24 24 24 24 24 22 21 21 22 21 20 20 20 19 18 18 18 17 16 16 16 15 14 14 14 14 15
7 8 8 9 10 12 13 14 15 16 17 19 21 23 25 26 26 26 25 25 25 23 22 22 22 21 21 22 22 21 20 20 22 24 24 24 24 23 21 20 23 24 24 26 28 29 27 26 24 21 19 19 19 20 21 21 22 23 23 23 23 23 23 23 22 21 21 21 21 20 20 20 20 19 19 18 18 17 17 16 16 16 15 14 14 14 14
8 9 9 9 10 12 13 14 15 15 15 16 18 22 24 25 25 25 25 24 23 23 22 21 21 21 22 22 21 19 17 17 18 18 17 17 20 22 22 22 22 23 22 23 26 27 26 24 23 20 19 19 19 19 21 22 22 21 22 22 22 22 21 21 20 20 20 21 21 20 21 20 20 20 19 18 16 16 16 16 15 15 14 14 15 15 14
9 10 11 11 11 12 12 13 14 14 15 16 19 21 23 23 23 24 25 24 24 23 24 23 22 21 21 22 21 20 20 19 20 19 17 13 12 15 18 20 21 21 21 21 22 24 23 22 20 19 19 19 19 19 20 21 20 20 21 20 20 20 20 20 20 20 20 21 21 21 21 21 20 20 19 18 17 16 15 15 15 14 14 14 14 14 14
8 9 11 12 11 11 12 13 13 15 16 17 17 18 19 20 22 23 24 24 24 24 24 25 24 22 21 21 20 20 22 23 23 23 21 17 13 13 16 19 20 20 20 20 21 22 21 19 18 19 19 19 19 20 21 20 20 20 20 20 20 20 19 19 19 19 20 20 20 20 20 20 20 19 18 18 17 17 16 16 17 16 16 15 14 14 13
10 9 10 11 11 10 10 11 13 14 14 13 11 11 13 16 18 20 22 23 23 23 23 23 23 21 20 19 18 18 20 21 21 21 21 20 18 16 16 18 20 20 20 19 19 19 18 17 18 18 18 19 20 20 20 20 20 19 19 19 19 18 18 17 17 17 17 17 18 18 19 18 18 17 18 18 17 16 16 17 18 19 19 19 18 17 15
11 9 9 9 9 7 7 9 11 12 11 11 11 13 15 17 18 19 21 22 23 22 22 21 21 20 19 18 18 17 17 17 17 17 17 18 18 17 17 18 18 19 18 17 16 16 15 15 16 17 17 18 19 19 19 19 18 18 18 18 17 16 16 15 15 14 14 15 16 16 17 17 17 17 17 17 17 16 16 17 18 19 19 20 20 19 18
12 12 11 11 10 10 11 11 11 10 11 13 15 17 19 21 20 19 19 21 22 22 21 20 19 19 18 18 18 18 17 17 16 16 16 16 16 16 16 16 17 17 18 17 16 15 13 13 14 15 16 16 17 17 17 17 17 16 16 16 16 15 15 14 14 14 14 14 15 15 16 16 17 17 17 17 16 16 16 16 17 17 18 19 20 20 20
18 17 17 15 15 16 16 15 13 12 14 16 17 18 21 22 19 17 17 19 20 21 21 20 19 19 18 17 17 16 16 16 16 16 15 16 15 15 15 15 15 16 16 17 17 15 13 11 12 13 14 14 15 14 14 14 14 14 14 14 14 14 14 14 14 13 13 13 14 14 15 15 15 16 16 15 15 16 15 15 15 16 17 18 19 20 20
19 19 19 18 18 18 18 16 15 14 15 16 17 18 20 21 18 16 15 16 16 17 19 19 18 18 17 17 16 15 14 14 14 14 14 15 15 14 14 15 14 14 15 16 17 17 14 11 9 10 11 12 13 13 12 12 12 12 12 12 12 12 13 13 13 13 13 12 13 13 13 14 14 14 14 14 14 15 15 15 15 16 17 18 19 20 19
20 21 21 20 19 19 17 16 16 16 15 15 15 15 15 16 17 17 15 14 14 16 18 18 17 16 15 15 15 14 13 13 13 13 13 14 14 14 14 14 14 14 14 15 16 17 16 13 10 9 9 10 11 11 10 10 10 10 10 11 11 11 11 12 12 12 11 11 11 11 12 12 12 12 13 13 13 13 14 14 15 15 16 17 19 19 19
Wind_Direction
214 190 205 216 212 240 250 247 264 275 259 225 233 231 212 153 154 249 250 208 219 266 301 333 328 321 339 357 1 12 16 14 17 19 21 22 19 17 16 12 6 1 356 350 351 354 353 351 348 341 330 308 272 247 235 225 213 203 196 191 191 196 198 195 195 200 203 202 202 202 203 202 201 201 204 207 211 217 227 231 235 241 245 256 281 299 303
240 211 219 220 214 235 252 249 243 231 237 240 233 235 216 181 201 238 250 256 248 253 291 322 337 6 43 34 16 15 14 10 9 13 17 19 15 9 4 359 353 350 346 343 346 350 351 349 345 341 336 325 303 272 254 237 218 206 196 187 183 185 188 187 190 198 201 200 200 200 200 199 198 199 201 204 212 222 230 236 242 249 260 283 301 304 299
292 262 244 235 229 235 249 256 222 159 257 265 246 239 217 200 241 247 246 283 274 260 273 287 16 52 57 45 23 10 1 351 359 14 19 15 8 358 350 348 343 337 336 339 343 346 347 343 338 334 334 330 314 278 252 238 219 206 199 190 182 183 185 185 188 196 199 199 199 198 199 199 197 197 199 206 218 227 234 242 250 259 279 299 301 296 294
285 268 253 253 270 289 275 268 172 233 272 273 243 239 226 220 255 262 282 273 258 264 289 290 58 58 56 42 12 350 328 329 4 28 20 2 350 342 338 336 333 331 330 333 335 334 336 336 333 329 328 328 322 296 256 239 222 205 198 191 185 184 183 182 184 187 192 196 196 195 197 198 195 194 201 211 220 231 239 244 255 274 292 297 293 297 313
276 262 250 268 27 335 282 253 192 209 243 249 267 310 301 189 185 169 203 236 236 251 316 350 5 23 40 23 339 314 304 331 27 30 359 339 325 321 322 317 319 321 317 317 320 320 323 326 327 327 324 320 321 313 282 246 226 208 195 187 185 184 181 179 176 175 180 185 188 192 195 193 191 192 201 215 226 232 235 240 262 279 282 283 308 333 336
261 268 319 30 4 265 254 228 181 174 183 190 193 199 212 212 168 136 164 203 267 294 9 19 337 333 357 309 283 269 256 99 63 359 326 310 301 304 302 298 300 304 307 312 315 315 318 319 320 322 320 316 316 314 297 248 219 211 197 186 182 182 180 177 173 172 176 180 183 187 187 183 185 194 206 221 226 222 223 239 255 255 253 301 327 331 329
238 257 61 346 266 245 227 232 213 168 143 149 161 165 204 231 174 112 124 146 259 271 282 283 281 283 273 264 267 253 177 146 148 310 305 293 293 295 292 292 293 296 302 309 314 317 317 317 316 314 313 313 314 311 286 218 182 197 215 194 180 177 177 176 175 174 175 176 176 176 176 177 186 197 207 213 209 206 216 230 232 235 270 300 314 324 331
217 191 165 217 256 264 256 278 274 228 136 113 152 239 294 269 153 134 145 194 220 228 245 251 263 270 257 245 250 235 182 162 193 285 293 285 284 281 277 275 277 286 294 298 305 311 312 312 311 308 305 306 308 307 282 210 179 175 202 198 179 172 170 171 174 173 170 168 169 168 168 176 187 194 198 198 197 201 207 212 224 248 271 292 316 330 336
207 209 210 242 310 310 275 256 263 254 219 166 169 212 260 267 194 145 152 201 234 232 235 243 259 274 279 267 242 233 229 237 254 275 282 278 276 275 275 276 277 282 288 291 296 302 304 305 304 301 300 300 301 300 276 212 187 172 171 183 185 174 165 167 174 171 164 162 163 163 166 177 185 188 189 189 190 193 198 214 232 248 270 301 320 328 335
192 211 244 288 298 277 262 268 310 329 337 143 131 124 250 264 252 181 162 209 263 270 287 300 317 338 338 316 277 251 272 290 292 293 288 283 282 280 281 283 285 286 288 290 295 297 297 298 297 294 293 294 298 296 269 213 187 172 169 179 186 178 173 176 176 168 162 161 162 163 170 179 181 179 178 180 186 194 213 233 240 256 280 296 309 321 333
135 171 223 250 241 239 264 302 322 339 344 99 100 79 274 271 280 267 228 264 276 272 286 325 10 14 332 300 284 266 276 291 297 295 292 292 291 289 288 289 289 292 295 295 296 297 293 292 293 291 289 289 291 289 262 207 182 175 173 176 183 182 178 175 168 162 161 163 164 167 172 175 174 170 170 177 191 211 240 249 253 265 273 279 294 314 328
198 150 218 251 232 228 279 311 316 317 326 47 77 42 262 265 280 270 238 241 262 245 213 209 32 355 268 280 290 292 294 297 292 286 287 291 293 293 294 296 295 297 298 296 295 296 294 292 292 290 287 285 284 280 252 198 178 177 176 178 183 178 169 163 160 159 161 165 168 169 168 165 162 161 166 182 209 235 250 252 254 260 261 266 285 313 329
221 167 239 263 262 267 282 285 285 298 345 46 85 215 241 256 272 256 202 204 238 231 207 209 233 233 239 267 289 297 304 302 295 291 289 288 291 293 294 297 300 299 296 292 289 290 291 291 292 289 283 279 276 271 245 198 182 178 175 174 172 163 158 160 160 160 164 169 169 164 159 157 156 164 183 206 226 240 246 246 248 252 254 259 280 313 326
226 182 209 256 297 280 254 270 289 321 33 55 211 232 252 254 251 240 213 217 228 220 214 224 243 257 264 275 286 291 294 292 290 293 296 295 295 297 298 300 300 296 292 288 286 287 288 288 289 285 278 274 269 258 235 205 190 179 170 165 162 160 162 164 161 161 165 164 158 152 151 155 163 179 197 212 228 239 243 243 245 246 249 259 276 297 313
290 275 211 219 284 243 223 275 332 360 46 226 236 261 281 248 224 226 240 250 239 225 238 248 250 264 275 277 281 286 286 284 281 285 291 294 297 299 300 300 298 294 289 285 283 284 284 287 288 282 272 268 258 234 216 203 186 172 165 161 159 160 163 161 158 158 158 152 149 152 156 163 177 190 200 213 232 243 243 241 241 240 249 266 274 286 301
306 276 238 212 221 236 220 228 282 260 253 259 249 254 276 275 254 237 248 274 260 236 249 264 261 261 267 269 275 280 281 282 281 283 288 292 296 297 296 295 294 291 284 281 282 283 282 285 285 277 268 266 240 205 191 182 170 164 158 154 151 151 153 154 152 149 148 150 154 159 164 172 183 190 202 222 238 244 240 237 237 243 256 268 270 279 292
236 226 231 235 242 242 228 222 224 228 251 272 245 217 253 271 259 220 208 264 269 250 245 257 260 259 262 267 270 273 279 282 281 283 288 291 292 292 292 293 293 289 283 280 280 280 280 282 280 269 264 255 215 189 176 166 159 153 145 141 142 145 146 147 146 146 150 155 156 160 168 177 182 189 212 232 241 243 238 235 240 250 260 265 266 274 285
291 272 260 272 286 289 287 259 218 202 219 230 175 153 231 241 238 225 217 238 255 254 246 250 260 262 264 271 273 273 276 280 281 284 287 288 289 290 292 294 293 290 284 278 276 278 285 289 280 235 223 213 188 174 166 159 153 146 142 141 142 143 144 147 150 150 152 156 159 165 169 169 179 200 221 239 249 247 240 238 245 254 261 262 262 269 282
297 289 288 307 305 297 295 271 221 208 225 227 205 200 224 238 239 239 244 252 261 265 255 249 260 266 267 272 276 276 275 277 282 284 283 287 291 292 292 293 293 289 278 270 275 283 289 295 281 195 208 201 170 156 152 152 148 144 145 146 143 143 148 151 151 152 156 157 157 160 163 167 186 202 210 236 249 247 242 241 248 256 260 260 260 267 282
254 262 279 296 293 278 265 245 249 263 262 265 261 239 237 253 256 255 262 265 265 270 266 257 260 268 271 269 271 274 274 274 279 281 281 286 289 288 290 292 290 283 270 267 282 285 283 288 269 219 217 192 161 147 140 145 146 143 142 141 140 144 150 150 149 153 157 152 144 144 156 165 168 164 178 226 240 250 253 252 258 263 264 263 265 272 287
290 280 289 307 308 296 283 275 283 284 272 275 283 277 270 270 267 268 270 263 254 254 258 262 265 269 270 268 266 269 273 273 276 279 281 284 283 284 287 287 283 275 267 271 284 282 281 281 264 247 245 206 173 159 149 151 151 145 140 139 140 143 148 151 151 148 144 143 144 147 148 143 126 109 131 222 232 256 269 270 275 278 277 277 278 282 294
285 276 289 308 306 298 294 283 277 279 282 287 290 290 289 280 271 270 270 269 266 257 254 260 264 265 269 271 267 268 271 271 273 277 279 281 281 281 283 283 280 273 271 279 284 278 274 270 254 235 218 193 179 168 159 156 150 142 140 141 141 141 144 148 149 143 139 142 147 141 134 129 123 122 178 204 204 254 285 288 288 289 289 290 290 289 295
256 265 273 264 248 271 282 279 267 263 271 278 277 276 275 267 264 264 263 270 279 279 278 277 264 253 266 275 272 273 275 274 276 278 279 279 279 279 281 282 278 270 273 285 286 272 259 243 194 169 167 175 178 167 155 149 145 143 144 143 141 141 142 144 144 141 135 131 126 120 116 112 107 114 173 193 204 269 297 301 301 300 298 296 292 288 290
259 262 259 248 249 268 276 278 274 269 265 265 267 269 264 258 259 262 261 264 266 271 286 288 273 256 263 275 277 277 275 278 281 282 282 282 278 275 275 272 267 270 278 283 276 259 218 149 140 147 155 163 164 153 145 143 145 148 147 144 142 142 139 134 130 125 123 122 117 113 112 107 97 100 123 158 221 294 306 309 311 310 306 298 291 287 287
261 261 255 252 259 265 270 277 275 268 262 261 265 270 267 262 264 266 264 262 257 257 269 284 285 285 284 282 281 278 274 280 285 284 285 284 278 272 269 266 269 275 273 256 237 207 166 149 147 147 144 142 142 143 145 148 150 148 144 143 144 139 128 120 117 117 120 121 117 117 119 113 102 102 115 150 267 309 322 329 329 326 319 309 301 295 291
261 270 276 276 273 270 273 282 280 269 263 265 268 272 271 269 269 270 269 268 268 267 261 251 279 294 294 285 281 281 281 286 289 289 289 287 281 279 274 271 275 276 246 200 172 155 157 159 154 145 137 137 145 149 144 141 141 139 137 135 131 125 120 119 119 119 117 114 115 123 125 116 108 110 117 102 308 305 311 326 336 338 336 334 332 321 305
266 272 283 290 291 281 261 261 270 277 280 279 276 276 278 276 274 274 277 274 268 264 250 229 244 278 291 290 288 288 290 293 299 307 317 314 301 294 279 269 272 253 173 160 147 141 148 152 148 144 146 152 156 146 132 129 131 132 128 123 119 118 120 121 119 116 114 111 116 126 127 123 122 123 104 3 326 303 302 314 324 328 332 344 351 344 329
267 262 256 264 275 276 270 270 278 285 287 286 282 281 284 284 279 276 277 277 271 255 236 235 240 262 292 297 303 308 311 320 339 346 345 334 316 304 167 123 118 130 135 126 118 124 133 140 140 142 151 155 147 135 131 134 135 132 128 127 127 128 126 120 114 115 119 121 124 127 127 129 133 129 91 338 312 308 314 322 327 325 329 344 355 351 342
270 267 257 252 257 266 275 281 285 287 288 290 291 290 290 289 284 274 272 274 267 227 219 237 263 292 293 308 342 355 341 352 23 11 356 357 10 74 105 102 94 91 90 89 95 106 114 120 121 122 133 139 136 135 141 142 136 132 134 133 131 127 123 117 114 119 125 128 132 134 132 132 141 144 162 303 298 305 318 331 340 338 337 346 353 349 347
285 278 269 268 268 268 271 279 287 293 294 297 300 300 297 292 284 277 276 273 256 224 222 244 299 303 312 9 34 31 16 23 41 28 10 21 60 83 89 86 79 74 70 68 75 86 91 94 96 99 116 133 140 144 147 142 134 130 130 128 123 120 120 120 120 120 125 133 138 138 135 142 168 185 244 290 301 315 328 343 357 355 351 353 353 349 348
291 280 268 279 294 295 293 295 298 300 298 298 302 305 304 299 286 274 273 283 50 247 252 129 112 13 22 40 55 56 45 40 44 39 30 41 58 68 75 77 75 69 62 58 61 70 77 79 80 86 101 120 132 135 132 126 122 120 119 118 120 121 124 128 126 118 122 137 144 147 152 175 199 213 256 294 312 323 335 356 20 16 2 358 357 354 353
305 307 324 345 345 344 337 325 312 308 307 304 300 294 286 281 277 271 265 99 109 205 224 80 70 53 47 53 66 69 58 46 43 41 41 47 53 58 68 76 77 72 67 62 58 60 64 64 67 82 97 104 107 109 110 109 110 112 113 117 125 132 136 134 125 113 110 124 143 157 170 201 248 289 319 329 333 335 344 16 43 30 9 3 2 360 358
355 1 4 354 348 342 332 322 314 311 307 299 290 283 274 265 261 253 175 113 134 157 102 72 67 67 68 69 69 66 58 49 44 40 40 46 51 53 61 69 71 68 65 62 58 56 55 54 60 79 95 101 103 104 106 107 107 110 116 122 130 140 143 132 121 119 116 117 131 152 168 349 9 26 30 24 11 3 20 55 59 39 22 15 10 5 2
17 5 349 341 333 319 314 316 316 310 312 321 319 310 314 319 293 123 104 94 99 100 90 81 77 76 75 72 66 61 56 50 43 39 40 42 46 50 56 62 64 63 61 59 57 54 51 54 64 75 86 97 103 105 107 107 106 106 109 112 116 126 133 130 132 135 120 105 100 86 73 75 79 77 75 70 52 41 64 79 66 45 36 29 20 14 11
16 5 355 350 339 323 321 330 329 326 355 18 5 359 28 40 59 91 91 81 79 86 86 84 80 76 73 69 64 60 57 54 50 47 46 44 45 49 52 55 57 57 55 53 50 48 49 58 69 75 80 87 94 99 103 107 110 112 114 112 107 107 113 118 116 105 89 85 88 89 89 93 93 91 91 90 70 57 77 89 67 43 38 35 28 25 21
25 21 17 15 16 15 11 4 2 18 45 41 13 21 56 59 57 68 76 79 83 88 87 83 78 72 68 66 64 61 59 58 55 51 49 47 48 50 49 47 46 48 48 44 40 42 51 62 73 81 84 83 86 91 96 101 106 109 110 105 96 91 91 92 90 87 88 92 95 95 94 94 93 91 90 83 67 61 76 85 64 42 39 35 29 31 29
38 38 34 27 31 32 24 16 28 50 61 53 36 39 59 65 63 66 75 83 88 87 84 80 76 72 68 66 66 65 62 60 59 56 52 50 51 51 47 40 36 39 40 32 29 39 54 65 74 81 82 80 81 85 89 93 96 97 96 94 92 91 91 89 87 86 88 90 92 92 92 91 90 86 81 74 67 65 70 72 61 52 49 42 34 34 31
46 45 43 40 41 41 35 34 43 53 58 55 48 49 59 68 70 71 74 78 81 81 80 77 75 74 71 67 65 63 60 61 63 61 57 54 53 52 47 36 31 31 28 22 31 47 59 68 74 77 76 75 77 80 83 86 89 90 90 90 90 89 88 86 84 82 81 82 85 86 86 85 84 80 75 71 68 66 67 67 63 59 54 49 45 42 34
45 42 44 45 47 47 46 47 48 48 50 54 54 54 62 70 73 72 71 71 74 77 79 77 75 73 71 67 63 60 59 61 64 64 63 61 59 57 51 40 33 32 33 39 48 56 63 69 74 75 74 74 76 77 78 80 82 84 86 86 86 85 84 84 82 80 78 78 80 81 80 80 79 76 73 71 68 66 64 64 62 58 54 50 47 44 41
41 38 42 45 46 45 47 50 51 50 52 55 57 58 63 69 73 72 71 71 73 77 77 76 74 70 67 67 66 62 61 62 63 65 65 63 60 58 51 39 34 37 46 54 58 61 64 68 72 73 73 75 77 77 77 78 79 81 83 84 84 83 83 82 81 79 77 76 76 76 76 76 74 72 71 69 66 62 59 58 55 53 50 46 43 42 42
47 45 47 48 47 46 46 49 53 54 54 55 59 63 67 71 72 71 70 70 72 74 74 74 75 74 72 72 71 66 63 61 60 59 59 57 54 55 51 37 33 41 52 58 61 63 64 65 67 70 72 76 79 79 79 79 80 82 84 84 84 83 82 80 78 77 75 75 74 74 73 72 71 68 66 64 61 57 53 50 48 47 45 41 40 40 39
61 57 55 54 54 53 51 52 55 55 55 55 59 65 69 72 73 73 73 73 72 72 72 73 77 79 78 75 72 66 63 63 62 61 61 58 55 55 52 41 38 46 55 61 63 64 64 63 64 66 70 76 81 85 86 85 85 86 86 86 85 84 82 80 78 77 75 75 74 72 70 68 65 61 57 55 53 50 45 40 39 39 37 36 37 37 35
84 84 79 73 71 69 66 65 64 61 57 57 61 67 71 73 73 73 73 71 71 71 70 71 72 73 74 74 72 67 63 63 66 67 68 65 61 59 54 46 43 47 53 59 61 62 63 65 66 67 72 79 85 89 90 89 88 87 86 86 84 83 81 80 78 77 75 73 71 68 66 63 59 55 53 49 45 41 37 33 30 29 27 27 31 32 31
102 102 99 95 92 88 83 80 78 75 69 67 70 74 76 76 75 75 74 71 69 68 67 68 68 69 70 70 70 67 63 61 64 68 70 67 61 56 52 47 45 46 50 56 60 60 61 64 67 69 73 79 84 88 89 88 87 86 85 83 82 81 79 77 75 72 70 69 68 65 63 60 57 55 52 47 41 36 31 26 22 19 17 17 20 22 23
115 109 106 102 100 97 94 90 89 90 90 86 82 81 82 82 81 80 79 76 73 71 70 71 72 73 74 74 73 71 68 64 62 63 65 64 60 56 52 49 47 47 50 55 60 60 60 62 66 68 71 77 83 86 86 86 85 84 83 82 80 77 75 73 71 70 69 68 67 65 62 61 59 57 54 50 45 38 31 26 21 16 12 10 11 12 14
133 119 111 105 100 96 95 95 97 99 96 89 82 80 82 84 84 85 85 83 80 77 76 77 78 80 83 85 84 80 75 69 65 63 64 69 75 74 65 56 52 51 52 54 57 59 61 64 67 69 72 77 82 84 84 84 84 83 82 81 79 76 73 71 71 70 69 68 68 67 66 65 64 60 57 54 49 42 36 34 31 25 19 15 12 11 11
144 134 122 113 105 98 95 96 96 92 88 83 77 74 76 79 81 84 87 88 86 84 82 80 80 80 79 80 80 80 78 73 67 63 65 73 80 79 68 59 54 51 52 53 55 57 61 65 69 71 73 76 80 81 81 81 81 81 82 82 81 78 75 73 72 71 71 70 71 71 70 69 67 63 60 56 51 45 41 40 38 36 32 29 25 22 21
161 149 135 123 116 110 103 96 89 81 80 84 84 82 84 86 85 85 86 88 87 86 85 83 82 81 78 74 73 74 76 75 70 65 66 74 80 76 67 60 54 49 48 51 53 55 59 65 69 71 72 73 75 77 79 79 79 80 81 83 82 80 77 75 73 72 71 71 71 71 70 69 67 65 61 57 54 51 47 43 40 39 39 37 34 32 30
151 143 133 123 116 111 105 96 88 85 91 95 92 90 93 94 87 81 83 87 86 84 84 84 85 85 83 79 76 75 74 76 78 76 74 76 78 73 66 60 55 52 52 53 52 50 52 57 62 66 69 69 70 71 74 77 78 79 80 82 84 83 81 78 75 71 70 69 69 70 71 70 67 65 63 60 57 54 51 46 41 39 41 42 41 37 35
124 125 123 115 107 103 100 98 98 102 105 103 99 97 97 93 84 77 83 90 90 85 83 82 82 85 85 82 80 79 78 77 78 78 76 75 74 70 64 61 59 60 60 58 52 47 44 46 49 55 61 65 67 67 67 71 76 78 79 82 84 84 83 80 75 70 68 68 68 70 72 71 68 66 65 62 58 55 52 50 47 45 44 45 44 40 37
121 122 123 117 111 107 104 104 110 114 112 109 106 102 97 93 87 83 89 97 98 93 87 82 80 83 86 85 83 82 81 79 76 74 74 75 75 72 68 66 65 65 64 58 49 42 38 39 45 50 57 64 69 69 65 64 68 73 75 77 79 81 81 79 75 71 69 69 69 71 72 72 70 68 65 62 60 57 54 52 51 48 45 44 44 42 40
126 127 125 119 114 112 109 109 115 121 122 118 114 108 100 95 89 82 83 93 102 101 95 87 81 81 83 85 84 82 80 78 76 74 74 76 78 76 72 70 68 66 64 59 50 42 38 40 49 59 67 71 72 69 64 60 60 65 70 73 73 73 74 74 73 73 74 72 70 70 71 70 69 68 66 62 60 60 57 53 51 49 47 46 46 45 42
Height
779 782 781 780 782 782 781 781 781 782 785 787 786 785 784 787 792 787 780 783 785 778 775 780 781 779 777 777 778 778 775 774 773 771 770 770 771 773 773 773 773 772 771 770 768 767 764 762 760 758 757 755 754 753 753 752 752 753 753 755 760 766 771 774 779 783 786 787 789 791 794 795 796 797 799 801 802 804 805 806 807 807 807 808 807 807 807
779 781 780 778 780 780 778 778 780 783 783 781 783 783 782 784 784 779 779 784 784 782 782 784 783 782 781 780 780 778 776 776 775 773 772 773 775 775 775 774 773 772 772 771 769 768 766 764 761 758 756 753 752 752 752 753 755 755 754 753 755 759 764 770 776 783 787 789 791 793 795 796 797 797 799 801 802 804 805 805 806 807 807 807 806 806 806
782 780 777 776 777 778 776 777 780 781 780 779 781 779 778 780 780 779 782 783 782 783 787 786 785 783 781 781 781 779 779 778 776 776 777 777 777 777 776 775 774 772 771 770 769 768 766 765 762 759 757 754 752 752 751 750 752 754 755 753 752 755 759 763 769 778 786 789 791 794 795 796 797 798 799 800 801 803 804 805 806 806 806 805 805 804 804
785 778 775 775 777 777 776 778 781 779 775 775 775 776 777 778 778 779 782 780 778 783 787 785 785 786 783 783 783 782 780 779 778 779 780 779 779 778 777 776 774 773 771 769 768 767 766 765 762 760 758 755 753 752 751 750 749 751 753 753 752 753 756 758 761 769 779 786 790 793 795 796 797 797 799 799 800 802 803 805 805 805 805 804 804 804 803
787 781 777 776 779 782 779 775 773 770 769 772 774 776 779 779 778 778 779 778 780 786 788 783 782 785 786 785 784 781 780 780 781 781 781 780 780 778 778 777 775 773 771 769 768 766 765 764 762 760 757 755 753 751 749 749 749 749 749 749 751 753 756 758 759 763 772 781 788 791 792 794 795 796 797 798 799 801 802 804 804 804 804 803 803 803 803
788 782 777 779 786 786 777 768 764 764 768 770 773 776 777 777 778 778 778 781 784 787 787 785 784 786 787 786 783 781 780 781 782 781 781 780 779 778 777 776 774 772 770 768 766 765 764 763 761 759 756 753 752 750 748 747 749 750 749 748 748 752 756 757 757 760 766 774 781 785 789 792 793 794 795 796 798 799 801 802 802 802 803 803 803 802 801
789 784 782 791 793 779 768 765 764 764 767 769 771 777 781 780 780 779 781 785 787 786 787 787 786 785 786 785 781 779 780 781 781 781 780 779 778 777 776 774 772 770 768 765 763 761 760 759 758 758 755 752 749 748 747 745 745 750 753 752 749 750 753 755 755 758 762 768 774 779 784 788 790 791 793 794 796 798 799 800 801 801 802 802 801 801 800
789 789 789 793 785 769 765 767 762 761 766 769 769 776 784 785 782 781 784 787 787 787 786 785 785 784 784 783 780 778 778 778 778 778 778 777 776 775 773 771 770 768 766 764 762 760 757 756 755 754 752 750 747 746 746 744 742 745 752 757 756 753 753 755 757 759 761 765 770 775 780 784 787 788 790 792 794 795 797 798 799 800 800 800 799 799 798
781 784 787 784 778 771 768 765 762 761 763 763 764 769 780 786 783 781 783 784 784 784 783 784 785 782 778 777 776 776 776 775 775 775 774 774 773 771 770 768 767 765 764 762 760 759 756 754 752 750 749 747 745 744 745 744 742 742 747 755 759 758 756 759 763 763 763 766 771 775 778 782 784 786 788 790 792 793 795 796 797 798 798 798 797 796 795
778 780 785 786 785 782 775 771 772 771 767 764 763 767 777 783 783 781 780 779 780 780 780 781 781 777 773 773 773 773 773 772 771 771 770 770 769 768 766 765 763 762 761 759 758 757 755 752 749 748 746 745 744 742 743 743 742 742 744 750 756 757 757 761 764 764 765 768 772 776 778 781 783 784 786 788 790 791 793 794 795 795 795 795 795 794 793
780 781 786 787 784 782 784 783 779 777 776 771 767 771 778 781 780 780 780 778 779 779 779 779 778 778 778 775 770 769 770 769 768 768 766 765 765 764 763 762 761 759 757 756 754 753 751 748 746 745 744 743 742 740 739 740 740 741 742 746 752 756 758 760 762 762 765 769 772 775 777 779 781 783 785 787 789 790 790 791 792 793 793 793 792 791 790
785 786 790 788 782 782 787 787 783 782 779 773 774 782 785 780 778 779 778 776 777 777 779 779 778 778 778 772 765 765 767 767 766 765 764 762 761 760 759 759 758 756 754 753 750 748 747 744 742 742 741 740 738 737 736 736 736 737 739 742 748 754 756 759 762 764 767 770 772 774 776 778 781 783 785 786 787 787 788 789 789 790 790 790 789 788 787
787 791 796 792 787 788 788 785 784 783 779 778 786 790 783 777 777 778 776 775 775 775 776 777 775 774 772 768 764 764 766 765 763 762 761 760 759 758 757 756 755 753 751 750 748 745 743 741 739 739 738 736 733 732 733 733 732 732 735 740 745 750 754 758 761 763 767 771 773 774 776 778 781 783 784 784 785 785 786 787 787 788 788 788 787 786 785
786 790 794 792 789 791 789 784 782 782 782 787 790 784 777 776 777 776 776 775 774 774 774 774 773 771 770 768 766 764 765 764 762 760 759 758 756 755 754 753 752 751 748 746 744 742 739 738 736 735 734 732 729 727 729 730 730 730 732 736 742 748 753 757 760 763 767 770 772 774 776 778 780 782 782 782 782 783 784 784 785 785 786 785 785 784 783
791 791 790 790 791 790 787 785 784 783 785 787 783 777 777 777 775 775 776 774 773 774 773 773 772 771 769 768 767 764 763 763 761 759 758 757 755 752 751 749 749 748 745 742 741 738 736 735 733 732 731 728 725 724 724 727 729 731 731 734 739 745 751 756 760 763 766 769 771 774 776 778 779 779 779 780 781 781 782 782 783 784 784 784 783 782 781
797 796 791 790 790 787 784 785 785 782 781 781 779 779 778 776 775 776 775 774 774 774 773 772 771 770 769 768 767 765 762 760 759 758 756 755 753 751 748 746 745 744 742 739 737 735 733 732 730 729 728 725 723 721 721 723 727 729 730 732 738 745 752 756 759 762 765 768 771 773 775 776 776 777 777 778 779 780 780 781 782 782 782 782 781 781 779
793 793 790 787 785 784 783 783 781 780 780 780 779 779 778 776 777 776 775 774 774 772 772 772 770 769 768 767 765 764 760 758 757 756 753 752 751 748 745 743 742 741 739 736 735 733 731 729 727 726 724 722 720 719 720 722 724 726 728 731 737 746 753 756 758 761 765 767 770 771 772 773 774 775 776 777 778 779 779 780 781 781 781 780 780 779 778
790 787 785 783 783 782 781 781 780 779 779 778 777 777 776 776 775 774 774 773 771 770 771 770 768 767 766 764 762 760 758 756 754 753 751 749 747 745 742 740 739 737 735 733 732 729 728 726 725 723 722 719 717 717 719 722 724 726 729 734 740 747 753 756 759 762 764 766 768 769 770 771 772 774 775 776 777 778 779 780 780 780 779 779 778 777 775
794 790 784 782 783 781 779 778 778 777 777 776 776 775 774 773 773 772 771 770 769 769 768 767 765 763 762 761 759 757 755 753 751 749 748 745 743 741 739 737 736 734 732 730 728 726 725 723 722 721 721 719 717 717 719 724 726 728 732 738 742 747 751 755 758 761 762 765 766 767 768 770 771 773 775 776 777 778 778 779 779 778 778 777 776 774 772
793 789 783 781 781 779 777 777 775 774 774 774 772 772 772 771 770 769 768 767 767 766 765 764 762 760 759 758 756 753 751 750 748 747 744 741 739 738 735 734 732 730 728 727 726 724 722 720 719 720 721 721 720 720 723 727 729 731 734 739 743 747 751 755 757 760 762 764 765 766 768 770 772 773 775 776 777 777 778 778 777 777 776 774 772 770 768
792 788 783 781 779 777 775 775 773 772 771 771 769 769 768 767 767 766 764 764 763 763 761 760 759 758 756 754 752 751 749 747 745 743 740 738 736 734 732 730 729 727 725 724 724 722 720 718 719 720 721 723 724 725 727 730 732 734 736 740 744 748 752 755 757 759 761 763 764 765 767 770 772 774 775 775 776 776 776 776 775 775 773 771 769 767 766
795 789 784 782 783 780 775 773 773 771 770 770 768 767 766 765 764 763 761 760 760 759 758 757 757 755 753 750 750 749 747 744 742 739 736 734 732 730 729 727 725 724 723 722 722 720 718 717 718 720 722 724 726 728 730 731 733 735 738 741 745 749 753 755 757 759 760 762 763 766 768 770 772 773 774 774 775 775 775 774 773 772 770 768 766 765 764
792 786 782 782 782 779 774 771 772 771 770 769 767 765 764 763 761 761 760 759 758 757 755 754 753 752 750 749 748 747 744 741 739 735 733 731 729 727 726 724 722 721 721 721 720 717 716 716 717 718 721 724 726 729 731 732 734 736 739 742 746 749 752 755 756 758 760 762 764 766 768 770 771 772 773 773 774 774 773 772 771 769 767 766 765 764 762
784 781 780 779 777 775 771 769 769 768 767 767 765 762 761 760 759 759 758 758 757 756 754 751 750 749 748 746 745 744 741 738 735 733 731 728 725 724 722 721 720 720 720 720 718 716 715 717 717 718 721 725 728 730 731 733 735 738 740 743 746 749 751 753 755 758 760 762 764 766 768 770 771 772 772 772 772 772 771 770 769 767 766 764 763 762 761
781 778 776 776 775 772 770 767 766 765 765 764 762 760 759 758 757 756 755 755 755 754 752 749 747 746 745 743 742 742 739 736 733 730 727 724 722 720 719 718 718 718 718 717 716 716 717 718 719 721 723 726 729 731 733 734 736 738 741 744 747 749 751 753 755 758 760 762 764 766 767 769 770 771 771 771 770 770 769 768 767 765 764 763 762 760 759
778 775 774 774 772 770 769 767 764 762 762 761 760 758 756 755 754 753 753 753 752 751 749 748 746 744 743 743 742 740 737 733 730 727 725 722 719 717 717 716 715 715 715 714 715 717 718 720 722 724 725 728 731 733 735 736 737 740 742 745 747 749 751 754 756 758 760 762 764 765 767 768 769 770 770 769 768 768 767 766 765 764 763 762 761 759 757
776 774 774 773 770 768 767 765 762 760 760 759 758 756 754 753 752 751 750 750 749 748 747 746 743 742 742 742 741 738 735 731 728 725 723 721 717 716 716 714 713 714 715 715 715 717 719 721 724 726 727 730 733 734 735 737 739 741 744 746 748 750 752 754 756 758 760 762 763 765 766 767 768 768 768 767 766 766 766 765 764 762 761 761 759 758 756
774 772 772 771 768 765 764 762 760 760 759 757 755 754 752 751 750 749 749 748 747 746 746 744 742 741 743 743 741 737 733 729 727 725 723 720 717 716 713 711 713 716 717 717 717 719 721 725 727 728 730 732 733 734 736 738 740 742 744 746 748 751 753 755 757 759 760 762 763 764 765 766 766 766 766 765 765 765 764 764 763 762 760 760 758 757 755
771 770 769 768 766 764 762 761 759 758 756 754 753 752 750 749 749 748 747 746 745 745 745 743 741 742 744 743 740 736 733 730 728 726 724 720 718 716 714 713 716 718 718 719 721 722 724 728 730 731 732 733 734 735 737 739 740 743 744 746 749 752 754 756 757 759 761 762 763 764 764 765 765 765 765 765 764 764 763 762 762 761 760 758 757 755 754
769 768 767 765 763 762 761 759 757 756 754 753 752 751 750 749 748 747 745 744 744 745 744 742 742 743 743 741 739 738 736 733 731 730 727 724 721 719 717 716 718 719 721 723 725 726 728 730 732 732 733 734 735 737 738 739 741 743 745 748 750 752 754 756 758 760 761 761 762 763 764 764 764 765 764 764 763 762 761 761 760 760 758 757 755 754 752
766 765 764 763 762 761 760 758 757 755 754 753 752 750 749 749 747 745 744 743 744 745 744 743 743 743 742 741 741 740 739 736 734 733 730 725 722 721 720 719 721 725 728 729 730 731 732 733 734 734 735 736 738 738 739 741 743 745 747 749 752 753 755 757 758 759 760 761 761 762 763 763 764 764 763 763 762 761 760 759 759 759 757 756 755 753 751
765 763 762 762 762 761 759 758 756 755 753 752 751 749 747 747 746 744 742 743 746 746 744 743 742 742 742 743 742 742 741 740 737 734 730 727 727 728 727 725 726 730 733 734 736 736 737 737 738 737 737 738 740 741 742 743 745 747 749 751 753 755 756 757 758 759 760 761 762 762 763 763 763 763 762 761 760 759 759 759 758 758 757 755 754 753 752
766 764 764 763 762 761 760 758 756 754 752 750 748 747 745 744 743 742 742 744 746 746 745 744 745 745 745 745 745 744 743 741 739 738 736 735 736 736 733 730 730 732 735 738 739 740 740 740 740 739 739 740 742 743 744 746 747 749 751 753 754 756 756 757 758 759 760 761 762 762 762 762 761 761 760 760 759 758 758 758 758 757 756 755 754 753 752
767 767 766 765 763 762 761 758 756 754 751 749 747 745 743 742 741 743 745 745 746 745 746 746 748 748 748 748 748 747 746 745 745 745 744 742 742 741 739 736 735 736 738 740 742 742 743 743 743 742 742 743 744 745 746 747 749 751 753 754 755 756 757 757 758 759 760 761 762 761 761 761 760 759 759 759 758 758 758 758 758 757 755 755 754 753 752
768 767 766 764 763 762 760 758 756 754 752 750 749 747 745 744 744 745 745 746 747 748 748 749 750 750 750 750 751 750 751 752 752 751 749 748 748 746 744 741 741 741 743 744 746 748 748 746 746 746 746 745 746 746 747 749 751 752 753 754 755 756 757 758 759 760 760 761 761 760 760 760 759 759 759 759 758 758 758 758 758 757 755 755 754 754 753
769 767 766 765 763 762 760 759 757 755 753 753 752 750 748 747 748 747 747 748 750 751 751 751 752 752 753 754 755 755 756 757 756 755 754 754 752 749 747 747 747 748 748 749 751 752 751 750 749 749 748 747 748 748 749 750 752 753 754 754 755 756 758 759 759 760 761 761 761 761 760 760 760 760 760 759 759 758 758 758 757 757 756 755 754 754 753
771 769 768 766 765 763 762 760 759 757 755 755 754 752 751 750 750 750 750 751 753 754 754 755 756 756 757 759 759 759 760 760 759 759 758 757 755 752 752 754 755 754 754 756 756 755 754 752 752 750 749 750 751 751 752 752 753 753 754 755 756 758 759 760 760 761 762 762 762 761 761 761 761 761 761 760 760 759 759 758 758 757 756 755 755 754 753
773 772 770 769 767 766 765 763 761 760 759 758 757 756 754 753 753 753 755 756 757 758 759 760 761 761 762 763 763 763 764 764 763 762 762 761 759 757 759 762 763 761 762 763 762 759 756 755 754 752 752 753 754 754 755 755 755 755 756 757 758 759 760 761 762 763 763 763 763 762 761 761 762 762 762 762 761 761 760 759 758 758 757 756 755 754 753
775 774 773 771 769 769 767 766 764 763 762 762 761 760 758 757 757 758 759 761 762 763 764 765 766 766 767 767 767 768 769 768 767 767 767 766 765 765 767 769 769 768 768 767 764 761 759 758 757 756 756 757 757 758 758 759 759 759 759 760 760 761 762 763 764 765 765 765 764 763 762 763 763 763 763 763 763 762 762 761 760 759 758 757 756 755 754
778 777 775 774 773 772 771 769 768 768 767 766 765 764 764 763 762 763 764 766 767 768 768 769 770 770 771 772 772 773 773 772 771 771 770 769 769 770 771 772 772 771 770 768 766 764 763 761 760 760 761 761 761 761 762 762 762 762 762 763 763 764 765 765 766 766 767 767 766 765 764 764 765 765 765 764 764 763 763 762 761 760 759 758 757 756 755
780 780 778 777 776 775 774 773 772 772 771 771 770 770 769 768 767 768 770 771 771 771 772 772 773 774 775 776 776 776 775 774 774 773 772 772 773 774 775 777 777 775 773 771 769 767 766 765 764 764 764 764 764 765 765 765 765 765 765 765 766 767 767 767 768 768 769 768 768 767 766 766 766 766 766 765 765 764 764 763 763 762 761 760 758 757 756
783 782 781 780 779 779 778 777 776 775 775 775 775 774 773 773 773 773 774 774 774 775 776 776 777 777 778 778 778 778 778 777 777 776 776 776 778 778 779 781 781 779 776 774 772 770 769 768 768 768 768 768 768 768 767 767 767 767 767 768 768 769 769 769 770 771 771 771 770 769 769 768 768 768 767 767 766 765 765 765 764 763 762 761 759 758 757
785 784 783 783 782 781 780 780 779 779 779 779 779 778 777 777 777 777 777 778 778 779 779 780 780 780 780 780 780 780 781 781 781 780 781 781 782 782 782 783 782 780 778 776 775 773 773 773 773 773 772 772 771 770 770 770 770 770 770 771 771 771 771 772 773 774 774 773 772 771 771 770 770 769 769 768 768 767 767 766 766 765 764 762 761 759 758
786 786 785 785 784 783 783 782 782 781 782 782 782 782 781 781 781 781 781 782 782 783 783 783 783 783 784 783 783 784 785 785 784 784 784 784 784 785 785 785 784 782 780 779 778 777 777 777 777 776 776 775 774 773 772 772 772 772 772 773 773 773 774 775 775 776 775 775 774 773 772 771 771 771 770 770 770 769 769 768 767 766 765 764 762 761 759
787 787 786 786 786 786 785 785 784 784 785 785 784 784 784 784 784 784 784 785 785 786 786 786 786 787 787 787 787 788 788 787 787 786 785 786 787 788 788 787 786 784 783 782 781 780 780 780 780 779 778 777 776 775 775 775 775 775 775 775 776 776 776 777 777 777 777 776 775 774 774 773 773 773 772 772 772 771 771 770 769 768 767 765 764 762 761
788 787 787 787 787 787 787 787 787 787 787 786 786 787 787 787 787 787 787 787 788 788 789 789 789 790 790 790 790 790 790 790 789 789 789 789 790 790 790 789 788 787 786 784 784 783 783 783 782 781 780 780 779 778 778 778 778 777 777 778 778 778 779 779 779 779 778 778 777 776 776 775 775 775 774 774 774 773 773 772 771 769 768 767 765 764 762
788 788 788 788 789 789 789 789 789 789 788 788 789 790 790 790 790 790 790 790 791 791 792 792 792 792 793 792 792 792 792 791 792 793 793 792 792 792 792 791 790 789 788 787 787 786 786 786 785 784 783 783 782 781 781 781 780 780 780 780 780 780 781 781 781 780 780 779 778 778 777 776 776 776 776 775 775 775 774 773 772 771 770 768 766 765 763
788 789 789 789 790 790 790 790 790 790 791 791 791 791 792 792 792 793 793 793 793 793 794 794 794 795 795 794 794 794 794 793 794 795 795 795 794 794 793 793 792 791 791 790 790 789 789 788 787 787 786 786 785 784 784 784 783 783 783 782 782 782 782 782 782 782 781 780 779 779 778 777 777 777 777 776 776 776 775 775 774 773 771 770 768 766 765
788 789 790 790 790 790 791 791 791 792 792 793 793 793 793 793 794 795 795 795 795 796 796 796 797 797 797 797 797 797 796 796 796 797 797 796 796 795 795 795 794 793 793 792 792 792 791 791 790 789 789 788 788 787 787 786 786 785 785 785 785 784 784 784 783 783 782 781 780 780 779 778 778 778 778 777 777 777 776 776 775 774 773 772 770 768 766
787 789 790 790 790 791 791 792 792 793 794 794 794 794 794 794 796 797 797 797 797 798 798 799 799 799 799 799 799 799 799 798 798 798 798 798 797 797 797 796 796 795 795 795 794 794 793 793 792 791 791 790 790 789 789 788 788 788 787 787 786 786 785 785 785 784 783 782 782 781 780 780 780 779 779 778 778 778 777 777 777 776 775 773 771 770 768
787 788 789 790 791 791 792 792 793 794 794 795 795 796 796 796 797 799 799 798 798 799 799 800 801 801 801 801 801 801 800 800 800 800 800 799 799 799 799 798 797 797 797 796 796 795 795 794 793 793 792 792 791 791 791 790 790 790 789 789 788 788 787 786 786 785 784 784 783 782 782 781 781 780 780 779 779 779 778 778 777 777 776 774 773 772 770
787 788 789 790 791 792 793 793 794 794 795 796 796 797 797 797 798 799 800 800 800 800 800 801 802 803 803 802 802 802 802 802 801 801 801 801 801 800 800 800 799 798 798 798 798 797 796 795 795 794 793 793 793 792 792 792 792 791 791 790 790 789 788 788 787 786 785 785 784 783 783 783 782 782 781 781 780 780 779 779 779 778 777 776 775 773 772